Flag for Vietnam Weather past 2 weeks in Hanoi, Vietnam

Now
75 °F

Fog.


Feels Like: 75 °F
Forecast: 72 / 87 °F
Wind: 5 mph from Southeast

Location: Ha Noi Airport

Current Time: Apr 27, 2015 at 12:19:22 AM

Latest Report: Apr 27, 2015 at 12:00 AM


Visibility: 2 mi

Pressure: 29.95 "Hg

Humidity: 89%

Dew point: 72 °F

Location of HanoiLocation

Historic Weather in Hanoi — Graph

°F

Hanoi temperature yesterday

Maximum temperature yesterday: 86 °F (at 1:00 PM)
Minimum temperature yesterday: 70 °F (at 3:00 AM)
Average temperature yesterday: 78 °F

Past Weeks' High & Low Weather Summary

 TemperatureHumidityPressure
High95 °F (Apr 20, 2:30 PM)94% (Apr 13, 3:00 AM)30.21 "Hg (Apr 13, 3:00 AM)
Low63 °F (Apr 13, 6:00 AM)20% (Apr 13, 2:30 PM)29.59 "Hg (Apr 18, 3:30 PM)
Average77 °F72%29.92 "Hg
* Reported Apr 11 11:00 PM — Apr 26 11:00 PM, Hanoi, Weather by CustomWeather, © 2015

Note: Actual official high and low records may vary slightly from our data, if they occured in-between our weather recording intervals... More about our weather records

Advertising

Hanoi weather history for previous 24 hours

 ConditionsComfort  
Time TempWeatherWind HumidityBarometerVisibility
11:00 PM
Sun, Apr 26
77 °FClear.9 mph79%29.98 "Hg3 mi
10:30 PM77 °FClear.9 mph79%29.98 "Hg3 mi
10:00 PM79 °FClear.9 mph74%29.98 "Hg4 mi
9:30 PM79 °FClear.7 mph74%29.98 "Hg4 mi
9:00 PM79 °FClear.7 mph74%29.95 "Hg4 mi
8:30 PM79 °FPartly cloudy.5 mph74%29.95 "Hg4 mi
8:00 PM81 °FPartly cloudy.9 mph70%29.95 "Hg4 mi
7:30 PM81 °FPartly cloudy.8 mph70%29.92 "Hg3 mi
7:00 PM82 °FPartly cloudy.8 mph66%29.92 "Hg3 mi
6:30 PM82 °FPartly cloudy.6 mph66%29.92 "Hg3 mi
6:00 PM82 °FBroken clouds.No wind66%29.92 "Hg4 mi
5:30 PM84 °FBroken clouds.1 mph58%29.89 "Hg5 mi
5:00 PM84 °FBroken clouds.7 mph55%29.89 "HgN/A
4:30 PM86 °FBroken clouds.6 mph55%29.92 "Hg5 mi
4:00 PM86 °FBroken clouds.8 mph55%29.92 "Hg6 mi
3:30 PM86 °FBroken clouds.7 mph55%29.92 "Hg5 mi
3:00 PM86 °FBroken clouds.5 mph52%29.92 "Hg6 mi
2:30 PM86 °FBroken clouds.6 mph55%29.95 "Hg6 mi
2:00 PM86 °FBroken clouds.5 mph59%29.98 "HgN/A
1:30 PM84 °FBroken clouds.3 mph58%29.98 "HgN/A
1:00 PM86 °FBroken clouds.5 mph55%29.98 "HgN/A
12:30 PM84 °FBroken clouds.5 mph55%30.01 "Hg6 mi
12:00 PM84 °FPartly sunny.5 mph58%30.04 "HgN/A
11:30 AM82 °FPartly sunny.5 mph62%30.04 "Hg6 mi
11:00 AM82 °FPartly sunny.3 mph66%30.04 "Hg5 mi
10:30 AM81 °FPartly sunny.1 mph66%30.07 "Hg4 mi
10:00 AM81 °FClear.3 mph66%30.07 "Hg6 mi
9:30 AM79 °FClear.3 mph70%30.07 "Hg6 mi
9:00 AM79 °FClear.2 mph74%30.07 "Hg5 mi
8:30 AM77 °FClear.5 mph74%30.04 "Hg4 mi
8:00 AM75 °FClear.5 mph83%30.04 "Hg4 mi
7:30 AM73 °FClear.3 mph83%30.04 "Hg3 mi
7:00 AM72 °FFog.2 mph88%30.04 "Hg2 mi
6:30 AM72 °FFog.5 mph88%30.04 "Hg2 mi
6:00 AM70 °FFog.No wind94%30.01 "Hg2 mi
5:30 AM70 °FFog.No wind94%30.01 "Hg2 mi
5:00 AM70 °FFog.No wind94%29.98 "Hg2 mi
4:00 AM70 °FFog.No wind94%29.98 "Hg2 mi
3:30 AM70 °FFog.3 mph94%29.98 "Hg2 mi
3:00 AM70 °FFog.5 mph94%29.98 "Hg2 mi
2:30 AM72 °FFog.6 mph88%29.98 "Hg2 mi
2:00 AM72 °FFog.6 mph94%29.98 "Hg2 mi
1:30 AM72 °FFog.6 mph88%29.98 "Hg3 mi
1:00 AM72 °FClear.6 mph88%29.98 "Hg3 mi
12:30 AM72 °FClear.7 mph88%30.01 "Hg3 mi
12:00 AM73 °FFog.7 mph89%30.01 "Hg3 mi
Weather by CustomWeather, © 2015

See weather overviewHow to use our weather pages